GPS BIIF-12 (PRN 32)

Last updated on Oct. 28, 2020, 5:53 a.m. UTC

1 41328U 16007A   20300.73452302  .00000020  00000-0  00000-0 0  9995
2 41328  54.8307 171.2283 0043493 221.4350 138.3196  2.00572375 34583
UTC
Height (km)
Latitude
Longitude
Inclination
Orbital Period
UTC large
Height (km)
Speed (km/s)
/
Latitude / Longitude
Inclination (degrees)
Orbital Period (minutes)
Azimuth
Elevation
Range (km)
Doppler Factor
iOS Compass Heading
iOS Angle

Next 30 passes for location: Hong Kong

Rise time Rise Azimuth (degrees) Set time Set Azimuth (degrees) Duration Max altitude (degrees)

No matching passes for this satellites